www.pogodaiklimat.ru

Погода и климат >> Архив погоды >> Мексика >> Matlapa


ПОГОДА в Matlapa

  • Прогноз погоды в Matlapa
  • Монитор погоды в Matlapa
  • Климат города

АРХИВ ПОГОДЫ в Matlapa

Время (UTC), дата Ветер
(напр.,м/с)
 
Видим.   Явления Облачность Т
(С)
Тd
(С)
f
(%)
Тe
(С)
Тes
(С)
Комфортность P
(гПа)
Po
(гПа)
Тmin
(С)
Tmax
(С)
R
(мм)
R24
(мм)
S
(см)
12 17.04 штиль 0 30 км 1/0
[Ci fib]
+16.8 +16.3 97 +17 +17 1018.8 1003.3 +16.7 +31.0
15 17.04 штиль 0 30 км 3/1 1000 м
[Cu hum Ci fib]
+21.0 +18.7 87 +25 +35 комфорт 1018.8 1003.3
18 17.04 СЗ 1 30 км 3/1 1000 м
[Cu hum Ci fib]
+27.1 +21.1 70 +34 +56 опасность
солнечного
удара
1016.3 1000.7 +16.7 +27.7
21 17.04 СЗ 1 30 км ясно +31.2 +20.4 53 +38 +55 опасность
солнечного
удара
1012.4 997.0
00 18.04 В 1 30 км ясно +31.0 +22.2 60 +40 +41 очень
душно
1010.2 995.0 +16.7 +32.8
12 18.04 штиль 0 25 км мгла {туман} 4/4 1000 м
[Sc diur, vesp]
+20.0 +19.5 97 +23 +23 комфорт 1013.2 998.0 +19.9 +32.8
15 18.04 штиль 0 25 км мгла {туман} 1/1 900 м
[Cu hum]
+22.4 +21.0 92 +29 +39 очень
душно
1014.2 998.5
18 18.04 СЗ 1 25 км мгла {туман} ясно +28.8 +22.2 68 +38 +63 опасность
солнечного
удара
1012.1 996.5 +19.9 +29.8
21 18.04 В 1 25 км мгла {туман} ясно +34.0 +23.4 54 +45 +62 опасность
перегрева
1009.5 994.3
00 19.04 В 1 25 км мгла {туман} ясно +33.6 +23.6 56 +45 +46 опасность
перегрева
1009.0 994.0 +19.9 +35.0
12 19.04 штиль 0 25 км мгла {туман} 9/9 1000 м
[Sc diur, vesp]
+23.5 +22.8 96 +31 +31 очень
душно
1017.4 1002.0 +23.4 +35.0
15 19.04 СЗ 1 20 км мгла {туман} 8/8 900 м
[Cu Sc]
+24.3 +22.8 91 +32 +34 очень
душно
1019.8 1004.4
18 19.04 СЗ 1 20 км мгла {туман} 6/6 1000 м
[Cu med, cong]
+28.8 +23.3 72 +39 +49 очень
душно
1020.0 1004.7 +22.9 +29.6
21 19.04 В 1 20 км мгла {туман} 3/3 1110 м
[Cu med, cong]
+32.0 +23.4 60 +43 +55 опасность
перегрева
1017.5 1002.2
00 20.04 В 1 20 км мгла {туман} 9/9 1000 м
[Cu Sc]
+29.0 +24.0 74 +40 +40 очень
душно
1017.0 1001.8 +22.9 +32.8
12 20.04 штиль 0 5000 м дымка {туман} 9/9 1000 м
[Sc diur, vesp]
+22.8 +22.1 96 +31 +31 очень
душно
1017.7 1002.3 +22.7 +32.8
15 20.04 СЗ 1 10 км дымка {туман} 9/9 900 м
[Cu Sc]
+22.9 +22.2 96 +31 +32 очень
душно
1019.8 1004.3
18 20.04 СЗ 1 20 км мгла {туман} 4/4 1000 м
[Cu med, cong]
+27.0 +22.1 75 +35 +50 очень
душно
1018.6 1003.3 +22.5 +28.0
21 20.04 СЗ 1 20 км мгла {туман} 1/1 1110 м
[Cu med, cong]
+31.2 +22.1 58 +40 +55 опасность
солнечного
удара
1015.1 999.8
00 21.04 В 1 20 км мгла {туман} 1/1 1000 м
[Cu med, cong]
+30.2 +21.6 60 +38 +40 очень
душно
1013.0 997.8 +22.5 +32.1
12 21.04 штиль 0 25 км мгла {туман} ясно +21.6 +20.8 95 +27 +27 душно 1013.0 997.8 +21.5 +32.1
15 21.04 штиль 0 25 км мгла {туман} 1/1 900 м
[Cu hum]
+23.7 +22.2 91 +31 +41 очень
душно
1013.9 998.5
18 21.04 СЗ 1 25 км мгла {туман} 1/1 1000 м
[Cu hum]
+30.0 +22.7 65 +40 +62 опасность
солнечного
удара
1011.6 996.2 +20.9 +31.0
12 22.04 штиль 0 20 км в посл. час дождь {туман} 9/9 600 м
[Cu Sc]
+24.0 +23.3 96 +32 +32 очень
душно
1012.6 997.5 0.7
15 22.04 штиль 0 25 км мгла {дождь, туман} 6/6 1000 м
[Cu med, cong]
+25.6 +24.2 92 +35 +40 очень
душно
1014.4 999.2
18 22.04 СЗ 1 25 км мгла {туман} 3/3 1110 м
[Cu med, cong]
+29.2 +24.9 78 +42 +60 опасность
перегрева
1014.4 999.2 +23.9 +29.8
12 23.04 штиль 0 15 км дымка {дождь, туман} 9/9 600 м
[Cu Sc]
+24.1 +23.5 96 +32 +32 очень
душно
1014.5 999.2 0.2
15 23.04 штиль 0 20 км дымка {туман} 9/9 900 м
[Cu Sc]
+25.0 +23.5 91 +34 +35 очень
душно
1016.3 1001.0
18 23.04 СЗ 1 10 км слабая морось {туман} 9/9 600 м
[Cu Sc]
+25.0 +23.5 91 +34 +36 очень
душно
1016.5 1001.2 0.6
21 23.04 СЗ 1 20 км мгла {туман} 8/4 1000 м
[Cu med, cong Ac As]
+28.1 +23.0 74 +38 +43 очень
душно
1013.9 998.5
00 24.04 штиль 0 20 км слабая морось {туман} 9/9 600 м
[Cu Sc]
+26.0 +23.1 84 +35 +35 очень
душно
1013.0 997.8 0.5

 

Местоположение метеостанции Matlapa (Мексика): широта 21.32 долгота -98.81 высота над уровнем моря 132 м.

В архиве по умолчанию представлена погода в Matlapa за последнюю неделю. Архивные данные за месяц целиком и за предыдущие месяцы, начиная с января 2011 года, Вы можете получить, выбрав интересующий диапазон дат из раскрывающегося списка и нажав кнопку "Ввод!".


*Определитесь, кто Вы:
робот инопланетянин человек

Внимание! Время в таблицах - всемирное. Для получения местного времени необходимо прибавить поправку, которая в Matlapa равна -6 ч.

Смотрите также архив погоды в соседних городах и на ближайших метеорологических станциях:

Погода в Tamuin (Мексика) (76 км)
Погода в Pachuca (Мексика) (133 км)
Погода в Rio Verde (Мексика) (139 км)
Погода в Tampico (Мексика) (139 км)
Погода в Tulancingo (Мексика) (145 км)
Погода в Tuxpan (Мексика) (152 км)
Погода в Queretaro (Мексика) (185 км)
Погода в Mexico City (Мексика) (217 км)
Погода в Institute of Geography (Мексика) (226 км)
Погода в Tlaxcala (Мексика) (230 км)

Пояснения к столбцам:

Ветер - указаны скорость ветра в м/с - средняя за 10 мин, порывы в срок и между сроками (в фигурных скобках) и направление, откуда дует ветер: С - северный, СВ - северо-восточный, В - восточный, ЮВ - юго-восточный, Ю - южный, ЮЗ - юго-западный, З - западный, СЗ - северо-западный.
Видимость - горизонтальная дальность видимости в метрах или километрах. При видимости от 1 до 10 км при отсутствии осадков обычно наблюдается дымка, при ухудшении видимости до 1 км и менее - туман. В сухую погоду видимость может ухудшаться дымом, пылью или мглою.
Явления - указаны атмосферные явления, наблюдавшиеся в срок или в последний час перед сроком; фигурными скобками обозначены явления, наблюдавшиеся между сроками (за 1-3 часа до срока); квадратными скобками обозначены град или гололедные отложения с указанием их диаметра в мм.
Облачность - указаны через наклонную черту общая и нижняя облачность в баллах и высота нижней границы облаков в метрах; квадратными скобками обозначены формы облаков: Ci - перистые, Cs - перисто-слоистые, Cc - перисто-кучевые, Ac - высококучевые, As - высокослоистые, Sc - слоисто-кучевые, Ns - слоисто-дождевые, Cu - кучевые, Cb - кучево-дождевые. Подробнее классификацию облаков см. в Атласе облаков (PDF).
T - Температура воздуха - температура, измеренная на высоте 2 м над землей.
Td - Температура точки росы - температура, при понижении до которой содержащийся в воздухе водяной пар достигнет насыщения.
f - Относительная влажность воздуха - влажноcть воздуха, измеренная на высоте 2 м над землей.
Te - Эффективная температура - температура, которую ощущает одетый по сезону человек в тени. Характеристика душности погоды. При расчете учитывается влияние влажности воздуха и скорости ветра на теплоощущения человека.
Tes - Эффективная температура на солнце - температура, которую ощущает человек, с поправкой на солнечный нагрев. Характеристика знойности погоды. Зависит от высоты солнца над горизонтом, облачности и скорости ветра. Ночью, в пасмурную погоду, а также при ветре 12 м/с и более поправка равна нулю.
P - Атмосферное давление - приведенное к уровню моря атмосферное давление.
Po - Атмосферное давление - измеренное на уровне метеостанции атмосферное давление.
Tmin - Минимальная температура - минимум температуры воздуха на высоте 2 м над землей.
Tmax - Максимальная температура - максимум температуры воздуха на высоте 2 м над землей.
R - Количество осадков - Количество выпавших осадков за период времени, мм. При наведении курсора мыши на число - период времени, за который выпало указанное количество осадков.
R24 - Количество осадков - Количество выпавших осадков за 24 часа, мм.
S - Снежный покров - Высота снежного покрова, см. При наведении курсора мыши на число - состояние снежного покрова и степень покрытия местности в баллах.